Stations météo

réclame
Mon MeteoGroup
Voorschoten AWS, Pays-Bas (6215): Température de l'air & dewpoint: 01.12.2019 16:00:00 - 07.12.2019 16:00:00 (CET)Voorschoten AWS, Pays-Bas (6215): Température de l'air 5cm: 01.12.2019 16:00:00 - 07.12.2019 16:00:00 (CET)Voorschoten AWS, Pays-Bas (6215): Vitesse du vent & gusts: 01.12.2019 16:00:00 - 07.12.2019 16:00:00 (CET)Voorschoten AWS, Pays-Bas (6215): Direction du vent: 01.12.2019 16:00:00 - 07.12.2019 16:00:00 (CET)Voorschoten AWS, Pays-Bas (6215): reduced air pressure: 01.12.2019 16:00:00 - 07.12.2019 16:00:00 (CET)Voorschoten AWS, Pays-Bas (6215): visibility: 01.12.2019 16:00:00 - 07.12.2019 16:00:00 (CET)Voorschoten AWS, Pays-Bas (6215): Quantités de précipitations: 01.12.2019 16:00:00 - 07.12.2019 16:00:00 (CET)
Date & Time tt [°C] td [°C] tt 5cm [°C] ff [km/h] ff [knt] fx [km/h] fx [knt] dd ppp [hPa] vv [km] rr [mm]
07.12.2019 16:00:00 9,7 7,6 9,4 18 10 36 19 WSW 1012,7 18 0,0
07.12.2019 15:00:00 9,9 7,8 9,7 18 10 32 18 WSW 1012,3 19 0,0
07.12.2019 14:00:00 10,0 7,8 9,9 22 12 40 21 WSW 1012,2 21 0,0
07.12.2019 13:00:00 10,1 7,5 10,0 22 12 32 18 WSW 1012,3 20 0,0
07.12.2019 12:00:00 10,1 7,4 9,9 22 12 36 19 W 1012,1 23 0,0
07.12.2019 11:00:00 9,8 7,7 9,6 22 12 32 18 W 1012,1 16 0,0
07.12.2019 10:00:00 9,8 7,5 9,3 22 12 36 19 W 1011,8 18 0,0
07.12.2019 09:00:00 9,6 7,3 9,2 22 12 40 21 W 1011,3 18 0,0
07.12.2019 08:00:00 9,6 7,5 9,2 25 14 40 21 W 1010,4 17 0,0
07.12.2019 07:00:00 9,6 7,6 9,1 22 12 36 19 W 1009,6 15 0,0
07.12.2019 06:00:00 9,5 7,6 9,2 25 14 47 25 W 1008,8 17 0,0
07.12.2019 05:00:00 9,7 7,6 9,3 29 16 43 23 W 1008,3 18 0,0
07.12.2019 04:00:00 9,5 7,5 8,8 32 18 43 23 W 1007,5 18 0,0
07.12.2019 03:00:00 9,8 7,8 9,5 29 16 43 23 W 1006,6 18 0,0
07.12.2019 02:00:00 9,8 7,9 9,4 29 16 43 23 W 1005,6 16 0,0
07.12.2019 01:00:00 9,9 7,9 9,4 29 16 50 27 W 1004,7 17 0,0
07.12.2019 00:00:00 9,9 8,1 9,5 32 18 50 27 W 1003,9 17 0,0
06.12.2019 23:00:00 9,4 8,8 8,4 25 14 61 33 W 1002,6 9 4,1
06.12.2019 22:00:00 9,0 7,8 8,7 36 19 61 33 W 1001,6 10 2,7
06.12.2019 21:00:00 9,9 9,4 9,0 25 14 43 23 WSW 1000,4 10 3,9
06.12.2019 20:00:00 9,0 8,7 8,8 25 14 47 25 SW 1001,0 13 0,0
06.12.2019 19:00:00 8,6 8,4 8,5 29 16 47 25 SSW 1001,4 11 0,2
06.12.2019 18:00:00 8,3 8,2 8,2 32 18 50 27 SSW 1001,9 3,4 1,3
06.12.2019 17:00:00 8,2 8,0 8,1 32 18 54 29 SSW 1002,1 4,1 0,2
06.12.2019 16:00:00 8,1 7,8 7,9 32 18 61 33 SW 1002,5 6 0,0
06.12.2019 15:00:00 8,1 7,6 7,9 40 21 61 33 SSW 1003,1 5 0,8
06.12.2019 14:00:00 8,0 7,4 7,8 40 21 65 35 SSW 1004,0 9 0,1
06.12.2019 13:00:00 7,1 6,7 6,8 36 19 54 29 SSW 1005,0 12 0,8
06.12.2019 12:00:00 6,2 6,1 6,2 32 18 54 29 SSW 1006,2 2,2 0,8
06.12.2019 11:00:00 5,9 5,7 5,9 40 21 54 29 SSW 1007,2 3,0 0,2
06.12.2019 10:00:00 5,7 5,3 5,7 40 21 54 29 SSW 1007,5 4,9 0,0
06.12.2019 09:00:00 5,6 5,3 5,6 32 18 50 27 SSW 1008,1 3,9 0,2
06.12.2019 08:00:00 5,5 5,1 5,4 32 18 50 27 SSW 1008,5 6 1,1
06.12.2019 07:00:00 5,4 5,0 5,3 32 18 54 29 SSW 1008,9 4,8 0,8
06.12.2019 06:00:00 5,5 4,8 5,4 36 19 58 31 SSW 1009,2 6 0,1
06.12.2019 05:00:00 5,4 4,7 5,2 32 18 58 31 SSW 1009,8 6 0,5
06.12.2019 04:00:00 5,4 4,7 5,3 32 18 54 29 SSW 1010,4 6 0,0
06.12.2019 03:00:00 5,5 4,6 5,4 36 19 58 31 SSW 1011,0 6 0,0
06.12.2019 02:00:00 5,5 4,6 5,3 36 19 54 29 SSW 1011,4 7 0,0
06.12.2019 01:00:00 5,2 4,6 5,1 36 19 65 35 SSW 1012,0 5 0,0
06.12.2019 00:00:00 5,2 4,8 5,0 32 18 50 27 SSW 1012,8 4,6 0,0
05.12.2019 23:00:00 5,1 5,1 5,0 29 16 47 25 SSW 1013,8 3,3 0,1
05.12.2019 22:00:00 4,6 4,6 4,5 32 18 43 23 SSW 1014,8 2,6 0,0
05.12.2019 21:00:00 4,0 4,0 4,1 32 18 47 25 SSW 1015,3 2,5 0,0
05.12.2019 20:00:00 3,6 3,6 3,7 29 16 40 21 SSW 1015,9 1,3 0,0
05.12.2019 19:00:00 3,8 3,8 3,8 25 14 40 21 SSW 1016,3 1,6 0,0
05.12.2019 18:00:00 4,3 4,1 4,4 25 14 36 19 SSW 1017,1 2,7 0,0
05.12.2019 17:00:00 5,6 5,2 5,4 22 12 29 16 SSW 1017,5 4,0 0,0
05.12.2019 16:00:00 6,1 5,2 5,9 18 10 25 14 SSW 1018,0 7 0,0
05.12.2019 15:00:00 6,0 5,2 5,9 14 8 22 12 SSW 1018,3 7 0,0
05.12.2019 14:00:00 5,4 4,9 5,2 14 8 25 14 SSW 1019,0 6 0,0
05.12.2019 13:00:00 4,1 4,1 3,9 14 8 25 14 S 1019,6 1,8 0,0
05.12.2019 12:00:00 3,0 3,0 3,3 14 8 22 12 S 1020,0 0,3 0,0
05.12.2019 11:00:00 2,1 2,1 1,8 14 8 18 10 S 1020,2 0,6 0,0
05.12.2019 10:00:00 0,9 0,9 0,3 11 6 18 10 S 1020,2 3,8 0,0
05.12.2019 09:00:00 -0,6 -0,6 -1,2 11 6 14 8 S 1020,4 2,1 0,0
05.12.2019 08:00:00 -0,3 -0,3 -0,6 11 6 14 8 S 1020,3 0,1 0,0
05.12.2019 07:00:00 -0,9 -0,9 -2,1 7 4 11 6 S 1020,1 0,1 0,0
05.12.2019 06:00:00 -1,2 -1,2 -1,4 7 4 11 6 S 1019,7 0,1 0,0
05.12.2019 05:00:00 -1,1 -1,1 -2,1 4 2 7 4 S 1019,7 0,2 0,0
05.12.2019 04:00:00 -2,3 -2,3 -3,3 4 2 7 4 SE 1020,0 0,1 0,0
05.12.2019 03:00:00 -2,9 -2,9 -4,5 4 2 7 4 SSE 1020,1 0,3 0,0
05.12.2019 02:00:00 -1,9 -2,0 -4,4 0 0 11 6 N 1020,1 0,1 0,0
05.12.2019 01:00:00 -2,9 -2,9 -4,2 7 4 7 4 S 1020,2 0,3 0,0
05.12.2019 00:00:00 -1,6 -1,6 -3,0 4 2 14 8 NNE 1020,3 2,0 0,0
04.12.2019 23:00:00 -1,0 -1,0 -2,8 7 4 11 6 S 1020,5 1,6 0,0
04.12.2019 22:00:00 -0,6 -0,6 -3,4 4 2 7 4 SE 1020,6 0,2 0,0
04.12.2019 21:00:00 -0,2 -0,2 -3,1 4 2 7 4 SE 1020,9 0,3 0,0
04.12.2019 20:00:00 -0,1 -0,1 -2,5 7 4 11 6 SE 1021,1 2,2 0,0
04.12.2019 19:00:00 1,6 1,6 -1,9 4 2 7 4 SE 1021,1 5 0,0
04.12.2019 18:00:00 1,9 1,7 -1,1 4 2 4 2 E 1021,0 7 0,0
04.12.2019 17:00:00 3,5 2,3 0,4 0 0 7 4 N 1020,7 13 0,0
04.12.2019 16:00:00 5,3 3,0 4,6 4 2 7 4 NNW 1020,6 17 0,0
04.12.2019 15:00:00 8,2 4,3 7,4 4 2 11 6 SSW 1021,0 25 0,0
04.12.2019 14:00:00 8,1 3,9 8,3 7 4 11 6 SW 1021,5 20 0,0
04.12.2019 13:00:00 7,7 4,2 7,3 7 4 14 8 SSW 1021,8 20 0,0
04.12.2019 12:00:00 6,8 4,2 7,0 7 4 11 6 S 1022,3 11 0,0
04.12.2019 11:00:00 4,7 3,3 4,4 7 4 14 8 SSW 1023,0 8 0,0
04.12.2019 10:00:00 3,1 2,7 1,6 7 4 11 6 SSE 1022,7 6 0,0
04.12.2019 09:00:00 1,2 1,2 -0,8 7 4 11 6 S 1022,7 5 0,0
04.12.2019 08:00:00 0,9 0,9 -0,7 7 4 11 6 S 1022,5 5 0,0
04.12.2019 07:00:00 0,7 0,5 0,0 11 6 14 8 SSW 1022,4 6 0,0
04.12.2019 06:00:00 1,5 1,1 0,3 7 4 14 8 S 1022,7 8 0,0
04.12.2019 05:00:00 2,4 1,7 1,6 11 6 14 8 S 1023,0 11 0,0
04.12.2019 04:00:00 1,8 1,4 0,7 11 6 14 8 S 1023,3 8 0,0
04.12.2019 03:00:00 2,1 2,0 1,3 11 6 14 8 S 1023,8 5 0,0
04.12.2019 02:00:00 2,5 2,2 1,7 11 6 18 10 S 1024,0 6 0,0
04.12.2019 01:00:00 3,9 3,2 3,5 14 8 22 12 S 1024,5 7 0,0
04.12.2019 00:00:00 3,3 3,1 2,3 11 6 14 8 SSW 1025,0 4,6 0,0
03.12.2019 23:00:00 3,5 3,2 2,9 14 8 18 10 SSW 1025,1 4,2 0,0
03.12.2019 22:00:00 3,8 3,4 3,3 14 8 18 10 SSW 1025,3 5 0,0
03.12.2019 21:00:00 4,5 4,0 4,1 14 8 22 12 SSW 1025,4 6 0,0
03.12.2019 20:00:00 4,6 3,7 3,8 18 10 25 14 SSW 1025,5 7 0,0
03.12.2019 19:00:00 4,0 3,5 3,1 11 6 18 10 SSW 1025,7 6 0,0
03.12.2019 18:00:00 4,7 3,6 3,9 14 8 18 10 SSW 1026,1 9 0,0
03.12.2019 17:00:00 4,7 3,7 3,8 11 6 25 14 S 1026,0 11 0,0
03.12.2019 16:00:00 6,6 4,6 6,3 14 8 29 16 SW 1026,4 18 0,0
03.12.2019 15:00:00 7,5 4,8 7,0 18 10 29 16 WSW 1026,5 26 0,0
03.12.2019 14:00:00 8,6 5,7 8,7 18 10 25 14 SW 1026,8 19 0,0
03.12.2019 13:00:00 8,2 5,9 8,2 18 10 29 16 WSW 1027,2 17 0,0
03.12.2019 12:00:00 8,3 6,2 8,2 14 8 22 12 SW 1027,7 15 0,0
03.12.2019 11:00:00 7,0 5,9 6,7 11 6 18 10 SW 1028,5 10 0,0
03.12.2019 10:00:00 5,0 4,8 4,1 11 6 18 10 SSW 1028,5 7 0,0
03.12.2019 09:00:00 2,7 2,7 1,0 11 6 14 8 S 1028,6 8 0,0
03.12.2019 08:00:00 0,3 0,2 -0,7 11 6 11 6 S 1028,6 6 0,0
03.12.2019 07:00:00 -0,2 -0,3 -1,7 7 4 7 4 S 1028,6 0,6 0,0
03.12.2019 06:00:00 0,4 0,4 -1,2 7 4 7 4 SSW 1028,5 0,3 0,0
03.12.2019 05:00:00 1,3 1,3 -0,5 4 2 7 4 SSW 1028,6 3,0 0,0
03.12.2019 04:00:00 1,7 1,7 0,7 7 4 7 4 SW 1029,0 10 0,0
03.12.2019 03:00:00 4,9 3,6 2,7 7 4 14 8 W 1029,1 35 0,0
03.12.2019 02:00:00 7,8 5,3 7,3 11 6 18 10 WNW 1029,2 33 0,0
03.12.2019 01:00:00 8,1 5,0 7,5 18 10 22 12 WNW 1029,2 32 0,0
03.12.2019 00:00:00 8,1 5,3 7,6 14 8 22 12 WNW 1029,3 39 0,0
02.12.2019 23:00:00 8,3 5,9 7,6 14 8 22 12 WNW 1029,1 33 0,0
02.12.2019 22:00:00 8,1 6,2 7,5 11 6 25 14 WNW 1028,9 26 0,0
02.12.2019 21:00:00 8,4 6,1 7,5 18 10 25 14 WNW 1028,7 18 0,0
02.12.2019 20:00:00 7,7 6,7 7,4 11 6 29 16 NW 1028,7 8 0,2
02.12.2019 19:00:00 7,6 6,0 6,5 11 6 25 14 NW 1028,1 18 0,0
02.12.2019 18:00:00 7,8 6,2 6,6 14 8 22 12 NW 1027,9 21 0,6
02.12.2019 17:00:00 7,6 6,9 7,3 11 6 29 16 NW 1027,8 22 0,2
02.12.2019 16:00:00 8,1 6,3 6,8 18 10 29 16 NW 1027,5 16 0,0
02.12.2019 15:00:00 8,8 5,7 7,8 14 8 29 16 NNW 1027,3 38 0,0
02.12.2019 14:00:00 8,5 5,7 8,3 18 10 29 16 NNW 1027,4 35 0,0
02.12.2019 13:00:00 8,9 6,4 8,4 18 10 29 16 NNW 1027,3 19 0,0
02.12.2019 12:00:00 8,7 6,2 8,9 22 12 32 18 NW 1027,2 24 0,0
02.12.2019 11:00:00 8,0 6,3 7,1 18 10 36 19 NW 1027,2 18 0,1
02.12.2019 10:00:00 7,2 5,2 6,6 14 8 29 16 WNW 1026,5 25 0,1
02.12.2019 09:00:00 6,8 4,6 5,3 14 8 29 16 NW 1026,0 34 0,0
02.12.2019 08:00:00 5,5 3,4 3,5 11 6 25 14 NW 1025,6 26 0,0
02.12.2019 07:00:00 5,2 3,2 3,6 11 6 22 12 NW 1025,3 28 0,0
02.12.2019 06:00:00 4,5 3,0 2,9 11 6 25 14 NW 1025,2 21 0,1
02.12.2019 05:00:00 5,5 3,2 3,2 14 8 22 12 NNW 1024,8 28 0,1
02.12.2019 04:00:00 3,6 3,6 1,7 7 4 40 21 N 1024,8 19 0,5
02.12.2019 03:00:00 0,1 0,1 -0,5 4 2 11 6 SW 1024,8 13 0,1
02.12.2019 02:00:00 -0,7 -0,7 -1,8 0 0 7 4 N 1024,6 11 0,0
02.12.2019 01:00:00 -1,9 -2,0 -3,8 4 2 7 4 WSW 1024,3 1,9 0,0
02.12.2019 00:00:00 -2,1 -2,2 -3,8 4 2 7 4 NW 1024,4 0,3 0,0
01.12.2019 23:00:00 -1,1 -1,2 -2,8 4 2 4 2 NW 1024,3 2,0 0,0
01.12.2019 22:00:00 -1,0 -1,0 -2,9 4 2 7 4 WNW 1023,7 0,8 0,0
01.12.2019 21:00:00 -0,4 -0,4 -2,1 4 2 4 2 NW 1023,6 4,4 0,0
01.12.2019 20:00:00 0,2 0,2 -2,1 4 2 7 4 N 1023,2 1,4 0,0
01.12.2019 19:00:00 1,5 1,5 -0,6 4 2 7 4 N 1023,0 14 0,0
01.12.2019 18:00:00 2,4 1,9 0,0 7 4 14 8 NE 1022,6 24 0,0
01.12.2019 17:00:00 2,2 1,4 0,9 7 4 14 8 N 1022,3 18 0,0
01.12.2019 16:00:00 4,2 2,7 3,5 11 6 18 10 NNE 1021,8 18 0,0

tt = Température de l'air
td = dewpoint
tt 5cm = Température de l'air 5cm
ff = Vitesse du vent
fx = gusts
dd = Direction du vent
ppp = reduced air pressure
vv = visibility
rr = Quantités de précipitations

stations d'obs. à proximité